2014100100 , 00 , 15
2014100101 , 01 , 14
2014100102 , 02 , 21
2014100103 , 03 , 25
2014100104 , 04 , 41
2014100105 , 05 , 17
2014100106 , 06 , 24
2014100107 , 07 , 24
2014100108 , 08 , 29
2014100109 , 09 , 28
2014100110 , 10 , 29
2014100111 , 11 , 17
2014100112 , 12 , 41
2014100113 , 13 , 23
2014100114 , 14 , 16
2014100115 , 15 , 28
2014100116 , 16 , 35
2014100117 , 17 , 14
2014100118 , 18 , 21
2014100119 , 19 , 25
2014100120 , 20 , 23
2014100121 , 21 , 24
2014100122 , 22 , 20
2014100123 , 23 , 19
2014100200 , 00 , 26
2014100201 , 01 , 28
2014100202 , 02 , 27
2014100203 , 03 , 31
2014100204 , 04 , 18
2014100205 , 05 , 34
2014100206 , 06 , 38
2014100207 , 07 , 24
2014100208 , 08 , 32
2014100209 , 09 , 22
2014100210 , 10 , 32
2014100211 , 11 , 32
2014100212 , 12 , 30
2014100213 , 13 , 19
2014100214 , 14 , 24
2014100215 , 15 , 27
2014100216 , 16 , 18
2014100217 , 17 , 15
2014100218 , 18 , 30
2014100219 , 19 , 21
2014100220 , 20 , 23
2014100221 , 21 , 23
2014100222 , 22 , 24
2014100223 , 23 , 37
2014100300 , 00 , 26
2014100301 , 01 , 28
2014100302 , 02 , 27
2014100303 , 03 , 20
2014100304 , 04 , 20
2014100305 , 05 , 23
2014100306 , 06 , 23
2014100307 , 07 , 19
2014100308 , 08 , 22
2014100309 , 09 , 35
2014100310 , 10 , 27
2014100311 , 11 , 24
2014100312 , 12 , 24
2014100313 , 13 , 32
2014100314 , 14 , 20
2014100315 , 15 , 31
2014100316 , 16 , 21
2014100317 , 17 , 26
2014100318 , 18 , 22
2014100319 , 19 , 20
2014100320 , 20 , 20
2014100321 , 21 , 19
2014100322 , 22 , 24
2014100323 , 23 , 22
2014100400 , 00 , 20
2014100401 , 01 , 22
2014100402 , 02 , 20
2014100403 , 03 , 18
2014100404 , 04 , 30
2014100405 , 05 , 20
2014100406 , 06 , 13
2014100407 , 07 , 33
2014100408 , 08 , 28
2014100409 , 09 , 29
2014100410 , 10 , 24
2014100411 , 11 , 30
2014100412 , 12 , 24
2014100413 , 13 , 23
2014100414 , 14 , 17
2014100415 , 15 , 20
2014100416 , 16 , 14
2014100417 , 17 , 12
2014100418 , 18 , 13
2014100419 , 19 , 18
2014100420 , 20 , 12
2014100421 , 21 , 17
2014100422 , 22 , 21
2014100423 , 23 , 21
2014100500 , 00 , 17
2014100501 , 01 , 20
2014100502 , 02 , 19
2014100503 , 03 , 25
2014100504 , 04 , 28
2014100505 , 05 , 25
2014100506 , 06 , 23
2014100507 , 07 , 24
2014100508 , 08 , 25
2014100509 , 09 , 33
2014100510 , 10 , 25
2014100511 , 11 , 25
2014100512 , 12 , 14
2014100513 , 13 , 29
2014100514 , 14 , 26
2014100515 , 15 , 15
2014100516 , 16 , 22
2014100517 , 17 , 21
2014100518 , 18 , 23
2014100519 , 19 , 17
2014100520 , 20 , 18
2014100521 , 21 , 25
2014100522 , 22 , 21
2014100523 , 23 , 29
2014100600 , 00 , 19
2014100601 , 01 , 24
2014100602 , 02 , 37
2014100603 , 03 , 20
2014100604 , 04 , 43
2014100605 , 05 , 23
2014100606 , 06 , 20
2014100607 , 07 , 30
2014100608 , 08 , 18
2014100609 , 09 , 32
2014100610 , 10 , 26
2014100611 , 11 , 23
2014100612 , 12 , 25
2014100613 , 13 , 18
2014100614 , 14 , 26
2014100615 , 15 , 27
2014100616 , 16 , 15
2014100617 , 17 , 24
2014100618 , 18 , 22
2014100619 , 19 , 20
2014100620 , 20 , 15
2014100621 , 21 , 27
2014100622 , 22 , 24
2014100623 , 23 , 23
2014100700 , 00 , 21
2014100701 , 01 , 23
2014100702 , 02 , 18
2014100703 , 03 , 25
2014100704 , 04 , 16
2014100705 , 05 , 21
2014100706 , 06 , 24
2014100707 , 07 , 19
2014100708 , 08 , 16
2014100709 , 09 , 23
2014100710 , 10 , 30
2014100711 , 11 , 31
2014100712 , 12 , 20
2014100713 , 13 , 20
2014100714 , 14 , 29
2014100715 , 15 , 18
2014100716 , 16 , 21
2014100717 , 17 , 22
2014100718 , 18 , 22
2014100719 , 19 , 19
2014100720 , 20 , 31
2014100721 , 21 , 29
2014100722 , 22 , 27
2014100723 , 23 , 25
2014100800 , 00 , 24
2014100801 , 01 , 22
2014100802 , 02 , 21
2014100803 , 03 , 23
2014100804 , 04 , 29
2014100805 , 05 , 28
2014100806 , 06 , 29
2014100807 , 07 , 19
2014100808 , 08 , 24
2014100809 , 09 , 20
2014100810 , 10 , 29
2014100811 , 11 , 23
2014100812 , 12 , 15
2014100813 , 13 , 22
2014100814 , 14 , 21
2014100815 , 15 , 32
2014100816 , 16 , 21
2014100817 , 17 , 19
2014100818 , 18 , 26
2014100819 , 19 , 25
2014100820 , 20 , 15
2014100821 , 21 , 22
2014100822 , 22 , 25
2014100823 , 23 , 27
2014100900 , 00 , 26
2014100901 , 01 , 27
2014100902 , 02 , 16
2014100903 , 03 , 18
2014100904 , 04 , 22
2014100905 , 05 , 19
2014100906 , 06 , 23
2014100907 , 07 , 28
2014100908 , 08 , 19
2014100909 , 09 , 20
2014100910 , 10 , 24
2014100911 , 11 , 24
2014100912 , 12 , 23
2014100913 , 13 , 19
2014100914 , 14 , 22
2014100915 , 15 , 16
2014100916 , 16 , 23
2014100921 , 21 , 21
2014100922 , 22 , 25
2014100923 , 23 , 27
2014101000 , 00 , 22
2014101001 , 01 , 17
2014101002 , 02 , 24
2014101003 , 03 , 31
2014101004 , 04 , 20
2014101005 , 05 , 22
2014101006 , 06 , 22
2014101007 , 07 , 20
2014101008 , 08 , 18
2014101009 , 09 , 26
2014101010 , 10 , 25
2014101011 , 11 , 25
2014101012 , 12 , 21
2014101013 , 13 , 13
2014101014 , 14 , 23
2014101015 , 15 , 24
2014101016 , 16 , 21
2014101017 , 17 , 17
2014101018 , 18 , 21
2014101019 , 19 , 21
2014101020 , 20 , 30
2014101021 , 21 , 21
2014101022 , 22 , 24
2014101023 , 23 , 22
2014101100 , 00 , 27
2014101101 , 01 , 24
2014101102 , 02 , 13
2014101103 , 03 , 21
2014101104 , 04 , 20
2014101105 , 05 , 23
2014101106 , 06 , 20
2014101107 , 07 , 31
2014101108 , 08 , 19
2014101109 , 09 , 28
2014101110 , 10 , 14
2014101111 , 11 , 22
2014101112 , 12 , 22
2014101113 , 13 , 23
2014101114 , 14 , 18
2014101115 , 15 , 16
2014101116 , 16 , 19
2014101117 , 17 , 24
2014101118 , 18 , 24
2014101119 , 19 , 26
2014101120 , 20 , 30
2014101121 , 21 , 23
2014101122 , 22 , 16
2014101123 , 23 , 19
2014101200 , 00 , 22
2014101201 , 01 , 14
2014101202 , 02 , 24
2014101203 , 03 , 18
2014101204 , 04 , 15
2014101205 , 05 , 28
2014101206 , 06 , 24
2014101207 , 07 , 24
2014101208 , 08 , 18
2014101209 , 09 , 11
2014101210 , 10 , 18
2014101211 , 11 , 11
2014101212 , 12 , 20
2014101213 , 13 , 20
2014101214 , 14 , 16
2014101215 , 15 , 13
2014101216 , 16 , 23
2014101217 , 17 , 20
2014101218 , 18 , 17
2014101219 , 19 , 18
2014101220 , 20 , 23
2014101221 , 21 , 34
2014101222 , 22 , 31
2014101223 , 23 , 21
2014101300 , 00 , 25
2014101301 , 01 , 18
2014101302 , 02 , 23
2014101303 , 03 , 23
2014101304 , 04 , 19
2014101305 , 05 , 37
2014101306 , 06 , 29
2014101307 , 07 , 29
2014101308 , 08 , 16
2014101309 , 09 , 26
2014101310 , 10 , 39
2014101311 , 11 , 22
2014101312 , 12 , 24
2014101313 , 13 , 24
2014101314 , 14 , 26
2014101315 , 15 , 24
2014101316 , 16 , 22
2014101317 , 17 , 24
2014101318 , 18 , 30
2014101319 , 19 , 29
2014101320 , 20 , 28
2014101321 , 21 , 17
2014101322 , 22 , 10
2014101323 , 23 , 19
2014101400 , 00 , 21
2014101401 , 01 , 20
2014101402 , 02 , 27
2014101403 , 03 , 21
2014101404 , 04 , 17
2014101405 , 05 , 16
2014101406 , 06 , 15
2014101407 , 07 , 21
2014101408 , 08 , 14
2014101409 , 09 , 29
2014101410 , 10 , 24
2014101411 , 11 , 17
2014101412 , 12 , 22
2014101413 , 13 , 9
2014101414 , 14 , 17
2014101415 , 15 , 7
2014101416 , 16 , 8
2014101417 , 17 , 18
2014101418 , 18 , 26
2014101419 , 19 , 21
2014101420 , 20 , 29
2014101421 , 21 , 21
2014101422 , 22 , 18
2014101423 , 23 , 26
2014101500 , 00 , 28
2014101501 , 01 , 26
2014101502 , 02 , 25
2014101503 , 03 , 29
2014101504 , 04 , 18
2014101505 , 05 , 27
2014101506 , 06 , 27
2014101507 , 07 , 27
2014101508 , 08 , 29
2014101509 , 09 , 33
2014101510 , 10 , 29
2014101511 , 11 , 25
2014101512 , 12 , 23
2014101513 , 13 , 31
2014101514 , 14 , 26
2014101515 , 15 , 24
2014101516 , 16 , 24
2014101517 , 17 , 25
2014101518 , 18 , 19
2014101519 , 19 , 16
2014101520 , 20 , 22
2014101521 , 21 , 33
2014101522 , 22 , 25
2014101523 , 23 , 23
2014101600 , 00 , 25
2014101601 , 01 , 23
2014101602 , 02 , 31
2014101603 , 03 , 16
2014101604 , 04 , 32
2014101605 , 05 , 15
2014101606 , 06 , 31
2014101607 , 07 , 22
2014101608 , 08 , 26
2014101609 , 09 , 25
2014101610 , 10 , 25
2014101611 , 11 , 26
2014101612 , 12 , 33
2014101613 , 13 , 26
2014101614 , 14 , 28
2014101615 , 15 , 24
2014101616 , 16 , 21
2014101617 , 17 , 30
2014101618 , 18 , 24
2014101619 , 19 , 29
2014101620 , 20 , 23
2014101621 , 21 , 30
2014101622 , 22 , 19
2014101623 , 23 , 25
2014101700 , 00 , 36
2014101701 , 01 , 31
2014101702 , 02 , 23
2014101703 , 03 , 17
2014101704 , 04 , 25
2014101705 , 05 , 22
2014101706 , 06 , 21
2014101707 , 07 , 28
2014101708 , 08 , 26
2014101709 , 09 , 30
2014101710 , 10 , 26
2014101711 , 11 , 22
2014101712 , 12 , 30
2014101713 , 13 , 19
2014101714 , 14 , 17
2014101715 , 15 , 18
2014101716 , 16 , 19
2014101717 , 17 , 21
2014101718 , 18 , 19
2014101719 , 19 , 24
2014101720 , 20 , 34
2014101721 , 21 , 26
2014101722 , 22 , 21
2014101723 , 23 , 22
2014101800 , 00 , 24
2014101801 , 01 , 19
2014101802 , 02 , 20
2014101803 , 03 , 34
2014101804 , 04 , 24
2014101805 , 05 , 36
2014101806 , 06 , 16
2014101807 , 07 , 22
2014101808 , 08 , 26
2014101809 , 09 , 30
2014101810 , 10 , 22
2014101811 , 11 , 21
2014101812 , 12 , 25
2014101813 , 13 , 32
2014101814 , 14 , 23
2014101815 , 15 , 21
2014101816 , 16 , 16
2014101817 , 17 , 34
2014101818 , 18 , 23
2014101819 , 19 , 28
2014101820 , 20 , 20
2014101821 , 21 , 24
2014101822 , 22 , 20
2014101823 , 23 , 23
2014101900 , 00 , 24
2014101901 , 01 , 26
2014101902 , 02 , 23
2014101903 , 03 , 31
2014101904 , 04 , 26
2014101905 , 05 , 32
2014101907 , 07 , 28
2014101908 , 08 , 28
2014101909 , 09 , 20
2014101910 , 10 , 25
2014101911 , 11 , 26
2014101912 , 12 , 20
2014101913 , 13 , 25
2014101914 , 14 , 18
2014101915 , 15 , 17
2014101916 , 16 , 21
2014101917 , 17 , 18
2014101918 , 18 , 19
2014101919 , 19 , 24
2014101920 , 20 , 15
2014101921 , 21 , 21
2014101922 , 22 , 20
2014101923 , 23 , 20
2014102000 , 00 , 26
2014102001 , 01 , 27
2014102002 , 02 , 24
2014102003 , 03 , 32
2014102004 , 04 , 25
2014102005 , 05 , 29
2014102006 , 06 , 31
2014102007 , 07 , 30
2014102008 , 08 , 24
2014102009 , 09 , 23
2014102010 , 10 , 19
2014102011 , 11 , 31
2014102012 , 12 , 5
2014102013 , 13 , 9
2014102014 , 14 , 29
2014102015 , 15 , 24
2014102016 , 16 , 23
2014102017 , 17 , 19
2014102018 , 18 , 19
2014102019 , 19 , 27
2014102020 , 20 , 24
2014102021 , 21 , 28
2014102022 , 22 , 25
2014102023 , 23 , 26
2014102100 , 00 , 26
2014102101 , 01 , 19
2014102102 , 02 , 21
2014102103 , 03 , 29
2014102104 , 04 , 25
2014102105 , 05 , 29
2014102106 , 06 , 26
2014102107 , 07 , 25
2014102108 , 08 , 19
2014102109 , 09 , 0
2014102110 , 10 , 21
2014102111 , 11 , 22
2014102112 , 12 , 2
2014102113 , 13 , 0
2014102114 , 14 , 0
2014102115 , 15 , 16
2014102116 , 16 , 19
2014102117 , 17 , 17
2014102118 , 18 , 32
2014102119 , 19 , 21
2014102120 , 20 , 19
2014102121 , 21 , 17
2014102122 , 22 , 28
2014102123 , 23 , 17
2014102200 , 00 , 32
2014102201 , 01 , 23
2014102202 , 02 , 21
2014102203 , 03 , 12
2014102204 , 04 , 32
2014102205 , 05 , 34
2014102206 , 06 , 25
2014102207 , 07 , 17
2014102208 , 08 , 22
2014102209 , 09 , 32
2014102210 , 10 , 25
2014102211 , 11 , 20
2014102212 , 12 , 9
2014102213 , 13 , 16
2014102214 , 14 , 18
2014102215 , 15 , 27
2014102216 , 16 , 21
2014102217 , 17 , 21
2014102218 , 18 , 19
2014102219 , 19 , 20
2014102220 , 20 , 15
2014102221 , 21 , 14
2014102222 , 22 , 14
2014102223 , 23 , 24
2014102300 , 00 , 13
2014102301 , 01 , 21
2014102302 , 02 , 29
2014102303 , 03 , 20
2014102304 , 04 , 26
2014102305 , 05 , 26
2014102306 , 06 , 21
2014102307 , 07 , 18
2014102308 , 08 , 26
2014102309 , 09 , 22
2014102310 , 10 , 23
2014102311 , 11 , 18
2014102312 , 12 , 23
2014102313 , 13 , 22
2014102314 , 14 , 20
2014102315 , 15 , 19
2014102316 , 16 , 18
2014102317 , 17 , 20
2014102318 , 18 , 27
2014102319 , 19 , 25
2014102320 , 20 , 30
2014102321 , 21 , 25
2014102322 , 22 , 19
2014102323 , 23 , 15
2014102400 , 00 , 9
2014102401 , 01 , 17
2014102402 , 02 , 12
2014102403 , 03 , 17
2014102404 , 04 , 20
2014102405 , 05 , 7
2014102406 , 06 , 19
2014102407 , 07 , 21
2014102408 , 08 , 19
2014102409 , 09 , 15
2014102410 , 10 , 14
2014102411 , 11 , 17
2014102412 , 12 , 19
2014102413 , 13 , 11
2014102414 , 14 , 8
2014102415 , 15 , 16
2014102416 , 16 , 7
2014102417 , 17 , 6
2014102418 , 18 , 5
2014102419 , 19 , 6
2014102420 , 20 , 7
2014102421 , 21 , 8
2014102422 , 22 , 4
2014102423 , 23 , 7
2014102500 , 00 , 11
2014102501 , 01 , 6
2014102502 , 02 , 3
2014102503 , 03 , 4
2014102504 , 04 , 2
2014102505 , 05 , 4
2014102506 , 06 , 1
2014102507 , 07 , 4
2014102508 , 08 , 2
2014102509 , 09 , 2
2014102510 , 10 , 0
2014102511 , 11 , 0
2014102512 , 12 , 0
2014102513 , 13 , 0
2014102514 , 14 , 1
2014102515 , 15 , 2
2014102516 , 16 , 1
2014102517 , 17 , 21
2014102518 , 18 , 26
2014102519 , 19 , 21
2014102520 , 20 , 15
2014102521 , 21 , 23
2014102522 , 22 , 7
2014102523 , 23 , 7
2014102600 , 00 , 6
2014102601 , 01 , 4
2014102602 , 02 , 16
2014102603 , 03 , 25
2014102604 , 04 , 17
2014102605 , 05 , 20
2014102606 , 06 , 26
2014102607 , 07 , 24
2014102608 , 08 , 19
2014102609 , 09 , 29
2014102610 , 10 , 26
2014102611 , 11 , 13
2014102612 , 12 , 17
2014102613 , 13 , 15
2014102614 , 14 , 16
2014102615 , 15 , 19
2014102616 , 16 , 18
2014102617 , 17 , 18
2014102618 , 18 , 30
2014102619 , 19 , 19
2014102620 , 20 , 17
2014102621 , 21 , 20
2014102622 , 22 , 19
2014102623 , 23 , 22
2014102700 , 00 , 14
2014102701 , 01 , 24
2014102702 , 02 , 23
2014102703 , 03 , 29
2014102704 , 04 , 17
2014102705 , 05 , 22
2014102706 , 06 , 25
2014102707 , 07 , 23
2014102708 , 08 , 25
2014102709 , 09 , 24
2014102710 , 10 , 23
2014102711 , 11 , 23
2014102712 , 12 , 19
2014102713 , 13 , 15
2014102714 , 14 , 23
2014102715 , 15 , 20
2014102716 , 16 , 15
2014102717 , 17 , 14
2014102718 , 18 , 7
2014102719 , 19 , 19
2014102720 , 20 , 22
2014102721 , 21 , 17
2014102722 , 22 , 21
2014102723 , 23 , 19
2014102800 , 00 , 17
2014102801 , 01 , 20
2014102802 , 02 , 18
2014102803 , 03 , 19
2014102804 , 04 , 17
2014102805 , 05 , 24
2014102806 , 06 , 20
2014102807 , 07 , 16
2014102808 , 08 , 19
2014102809 , 09 , 28
2014102810 , 10 , 17
2014102811 , 11 , 24
2014102812 , 12 , 21
2014102813 , 13 , 18
2014102814 , 14 , 14
2014102815 , 15 , 14
2014102816 , 16 , 31
2014102910 , 10 , 26
2014102911 , 11 , 19
2014102912 , 12 , 19
2014102913 , 13 , 17
2014102914 , 14 , 10
2014102915 , 15 , 15
2014102916 , 16 , 19
2014102917 , 17 , 24
2014102918 , 18 , 15
2014102919 , 19 , 16
2014102920 , 20 , 16
2014102921 , 21 , 15
2014102922 , 22 , 9
2014102923 , 23 , 26
2014103000 , 00 , 24
2014103001 , 01 , 21
2014103002 , 02 , 22
2014103003 , 03 , 14
2014103004 , 04 , 28
2014103005 , 05 , 24
2014103006 , 06 , 31
2014103007 , 07 , 20
2014103008 , 08 , 22
2014103009 , 09 , 17
2014103010 , 10 , 18
2014103011 , 11 , 18
2014103012 , 12 , 17
2014103013 , 13 , 28
2014103014 , 14 , 17
2014103015 , 15 , 17
2014103016 , 16 , 19
2014103017 , 17 , 35
2014103018 , 18 , 24
2014103019 , 19 , 20
2014103020 , 20 , 21
2014103021 , 21 , 19
2014103022 , 22 , 22
2014103023 , 23 , 25
2014103100 , 00 , 22
2014103101 , 01 , 29
2014103102 , 02 , 17
2014103103 , 03 , 20
2014103104 , 04 , 21
2014103105 , 05 , 31
2014103106 , 06 , 29
2014103107 , 07 , 24
2014103108 , 08 , 12
2014103109 , 09 , 21
2014103110 , 10 , 24
2014103111 , 11 , 17
2014103112 , 12 , 24
2014103113 , 13 , 27
2014103114 , 14 , 20
2014103115 , 15 , 14
2014103116 , 16 , 22
2014103117 , 17 , 23
2014103118 , 18 , 19
2014103119 , 19 , 15
2014103120 , 20 , 18
2014103121 , 21 , 15
2014103122 , 22 , 12
2014103123 , 23 , 13
